Location: Wildlife_Club
(35.6000°N, 81.4330°W)
Time: 17:35:58
(UTC-04:00)

Iridium 56 - Visible Passes

Search period start: 23 April 2017 00:00
Search period end: 03 May 2017 00:00
Orbit: 776 x 779 km, 86.4° (Epoch: 22 April)

Date Brightness Start Highest point End Pass type
(mag) Time Alt. Az. Time Alt. Az. Time Alt. Az.
23 Apr 7.7 00:08:32 10° N 00:10:20 22° N 00:10:20 22° N visible
23 Apr 7.4 23:35:03 10° N 23:37:04 23° NNE 23:37:04 23° NNE visible
24 Apr 7.5 23:01:58 10° NNE 23:03:47 19° NE 23:03:47 19° NE visible
25 Apr 8.0 00:42:53 10° NNW 00:44:17 16° NW 00:44:17 16° NW visible
25 Apr 7.7 22:29:34 10° NE 22:30:33 13° NE 22:30:33 13° NE visible
26 Apr 7.5 00:08:45 10° NNW 00:11:02 25° NNW 00:11:02 25° NNW visible
26 Apr 7.0 23:35:03 10° N 23:37:46 32° N 23:37:46 32° N visible
27 Apr 6.9 23:01:43 10° NNE 23:04:31 29° NNE 23:04:31 29° NNE visible
28 Apr 8.1 00:43:41 10° NW 00:45:01 14° NW 00:45:01 14° NW visible
28 Apr 7.2 22:28:50 10° NNE 22:31:18 20° NE 22:31:18 20° NE visible
29 Apr 7.5 00:09:06 10° NNW 00:11:46 25° NW 00:11:46 25° NW visible
29 Apr 7.6 21:57:02 10° NE 21:58:04 12° ENE 21:58:04 12° ENE visible
29 Apr 6.7 23:35:10 10° N 23:38:34 40° NNW 23:38:34 40° NNW visible
30 Apr 6.2 23:01:37 10° N 23:05:21 46° NNE 23:05:21 46° NNE visible
01 May 8.3 00:45:18 10° WNW 00:45:50 11° WNW 00:45:50 11° WNW visible
01 May 6.5 22:28:26 10° NNE 22:32:08 32° ENE 22:32:08 32° ENE visible
02 May 7.6 00:09:41 10° NNW 00:12:37 21° WNW 00:12:37 21° WNW visible
02 May 7.1 21:55:50 10° NE 21:58:57 18° ENE 21:58:57 18° ENE visible
02 May 6.7 23:35:25 10° NNW 23:39:26 38° WNW 23:39:26 38° WNW visible
